2023/01/09 00:00:00,89.3,-1.2
2023/01/09 00:10:00,89.3,-1.7
2023/01/09 00:20:00,89.2,-0.7
2023/01/09 00:30:00,89.2,-1.4
2023/01/09 00:40:00,89.1,-1.4
2023/01/09 00:50:00,89.1,-0.5
2023/01/09 01:00:00,89.1,-1.3
2023/01/09 01:10:00,89.0,-1.4
2023/01/09 01:20:00,89.0,-1.6
2023/01/09 01:30:00,88.9,-1.6
2023/01/09 01:40:00,88.9,-1.2
2023/01/09 01:50:00,88.9,-1.2
2023/01/09 02:00:00,88.8,-1.4
2023/01/09 02:10:00,88.8,-1.6
2023/01/09 02:20:00,88.7,-1.7
2023/01/09 02:30:00,88.7,-1.3
2023/01/09 02:40:00,88.6,-1.7
2023/01/09 02:50:00,88.6,-1.6
2023/01/09 03:00:00,88.6,-1.6
2023/01/09 03:10:00,88.5,-1.2
2023/01/09 03:20:00,88.5,-1.2
2023/01/09 03:30:00,88.5,-1.4
2023/01/09 03:40:00,88.4,-1.5
2023/01/09 03:50:00,88.4,-1.5
2023/01/09 04:00:00,88.4,-1.6
2023/01/09 04:10:00,88.3,-1.7
2023/01/09 04:20:00,88.3,-1.8
2023/01/09 04:30:00,88.3,-1.7
2023/01/09 04:40:00,88.3,-1.6
2023/01/09 04:50:00,88.2,-1.7
2023/01/09 05:00:00,88.2,-1.6
2023/01/09 05:10:00,88.2,-1.6
2023/01/09 05:20:00,88.2,-1.8
2023/01/09 05:30:00,88.1,-1.7
2023/01/09 05:40:00,88.1,-1.6
2023/01/09 05:50:00,88.0,-1.7
2023/01/09 06:00:00,88.0,-1.3
2023/01/09 06:10:00,88.0,-1.4
2023/01/09 06:20:00,87.9,-0.9
2023/01/09 06:30:00,87.8,-1.2
2023/01/09 06:40:00,87.9,-0.9
2023/01/09 06:50:00,87.8,-0.8
2023/01/09 07:00:00,87.8,-0.9
2023/01/09 07:10:00,87.8,-0.7
2023/01/09 07:20:00,87.8,-0.7
2023/01/09 07:30:00,87.7,-0.7
2023/01/09 07:40:00,87.7,-0.7
2023/01/09 07:50:00,87.7,-0.5
2023/01/09 08:00:00,87.5,-0.2
2023/01/09 08:10:00,87.5,-0.2
2023/01/09 08:20:00,87.5, 0.0
2023/01/09 08:30:00,87.5, 0.4
2023/01/09 08:40:00,87.4, 0.5
2023/01/09 08:50:00,87.5, 0.8
2023/01/09 09:00:00,87.5, 1.5
2023/01/09 09:10:00,87.5, 2.4
2023/01/09 09:20:00,87.4, 2.6
2023/01/09 09:30:00,87.3, 2.9
2023/01/09 09:40:00,87.2, 3.4
2023/01/09 09:50:00,87.1, 3.9
2023/01/09 10:00:00,87.1, 3.8
2023/01/09 10:10:00,87.0, 3.8
2023/01/09 10:20:00,87.0, 4.5
2023/01/09 10:30:00,86.9, 5.1
2023/01/09 10:40:00,87.0, 4.9
2023/01/09 10:50:00,86.9, 5.3
2023/01/09 11:00:00,86.9, 5.8
2023/01/09 11:10:00,87.0, 5.5
2023/01/09 11:20:00,86.9, 6.0
2023/01/09 11:30:00,86.9, 8.4
2023/01/09 11:40:00,86.8, 9.5
2023/01/09 11:50:00,86.7,10.6
2023/01/09 12:00:00,86.5,10.7
2023/01/09 12:10:00,86.5,10.9
2023/01/09 12:20:00,86.5,11.8
2023/01/09 12:30:00,86.5,10.5
2023/01/09 12:40:00,86.6, 8.5
2023/01/09 12:50:00,86.6, 5.8
2023/01/09 13:00:00,86.6, 8.9
2023/01/09 13:10:00,86.7, 6.7
2023/01/09 13:20:00,86.7, 6.2
2023/01/09 13:30:00,86.6, 5.3
2023/01/09 13:40:00,86.6, 5.0
2023/01/09 13:50:00,86.4, 4.0
2023/01/09 14:00:00,86.3, 4.3
2023/01/09 14:10:00,86.3, 5.1
2023/01/09 14:20:00,86.3, 4.6
2023/01/09 14:30:00,86.1, 3.5
2023/01/09 14:40:00,86.2, 3.1
2023/01/09 14:50:00,86.1, 2.3
2023/01/09 15:00:00,86.1, 2.2
2023/01/09 15:10:00,86.1, 2.1
2023/01/09 15:20:00,86.0, 2.0
2023/01/09 15:30:00,86.0, 2.1
2023/01/09 15:40:00,86.0, 2.4
2023/01/09 15:50:00,86.1, 2.0
2023/01/09 16:00:00,86.1, 2.0
2023/01/09 16:10:00,85.9, 1.7
2023/01/09 16:20:00,85.9, 1.8
2023/01/09 16:30:00,86.0, 2.0
2023/01/09 16:40:00,85.9, 2.0
2023/01/09 16:50:00,85.8, 2.1
2023/01/09 17:00:00,85.7, 1.7
2023/01/09 17:10:00,85.7, 1.7
2023/01/09 17:20:00,85.6, 1.8
2023/01/09 17:30:00,85.5, 1.5
2023/01/09 17:40:00,85.4, 1.6
2023/01/09 17:50:00,85.3, 1.5
2023/01/09 18:00:00,85.3, 1.5
2023/01/09 18:10:00,85.3, 1.8
2023/01/09 18:20:00,85.2, 1.6
2023/01/09 18:30:00,85.1, 1.6
2023/01/09 18:40:00,85.0, 1.5
2023/01/09 18:50:00,84.9, 1.9
2023/01/09 19:00:00,84.7, 1.4
2023/01/09 19:10:00,84.6, 1.4
2023/01/09 19:20:00,84.6, 1.5
2023/01/09 19:30:00,84.5, 1.9
2023/01/09 19:40:00,84.4, 1.8
2023/01/09 19:50:00,84.2, 1.6
2023/01/09 20:00:00,84.1, 1.8
2023/01/09 20:10:00,84.0, 2.0
2023/01/09 20:20:00,83.9, 1.7
2023/01/09 20:30:00,84.0, 1.5
2023/01/09 20:40:00,83.8, 1.7
2023/01/09 20:50:00,83.6, 1.6
2023/01/09 21:00:00,83.4, 1.3
2023/01/09 21:10:00,83.2, 0.9
2023/01/09 21:20:00,83.3, 0.7
2023/01/09 21:30:00,83.5, 0.7
2023/01/09 21:40:00,83.5, 0.5
2023/01/09 21:50:00,83.4, 0.7
2023/01/09 22:00:00,83.3, 0.7
2023/01/09 22:10:00,83.2, 0.6
2023/01/09 22:20:00,83.1, 1.0
2023/01/09 22:30:00,82.8, 1.3
2023/01/09 22:40:00,82.6, 1.3
2023/01/09 22:50:00,82.4, 1.0
2023/01/09 23:00:00,82.2, 1.1
2023/01/09 23:10:00,82.0, 1.2
2023/01/09 23:20:00,81.7, 1.1
2023/01/09 23:30:00,81.6, 0.9
2023/01/09 23:40:00,81.8, 0.7
2023/01/09 23:50:00,81.9, 0.5
